Burlington, IA

5:17 PM CDT on August 24, 2016 (GMT -0500)
Burlington Regional

Weather History for KBRL - June, 2013

Change the Weather History Date:

Wednesday, June 12, 2013

  Actual Average Record
Temperature  
Mean Temperature 83 °F 72 °F  
Max Temperature 92 °F 83 °F 95 °F (1952)
Min Temperature 73 °F 62 °F 40 °F (1903)
Degree Days  
Heating Degree Days 0 0  
Month to date heating degree days 15 9  
Since 1 June heating degree days 15 9  
Since 1 July heating degree days 5928 5596  
Cooling Degree Days 18 8  
Month to date cooling degree days 23 79  
Year to date cooling degree days 122 182  
Since 1 June cooling degree days 23 79  
Growing Degree Days 33 (Base 50)    
Moisture  
Dew Point 70 °F    
Average Humidity 67    
Maximum Humidity 82    
Minimum Humidity 52    
Precipitation  
Precipitation 0.00 in 0.16 in 2.79 in (2002)
Month to date precipitation 0.14 1.81  
Year to date precipitation 23.34 16.07  
Sea Level Pressure  
Sea Level Pressure 29.76 in    
Wind  
Wind Speed 9 mph (WSW)    
Max Wind Speed 20 mph    
Max Gust Speed 35 mph    
Visibility 10 miles    
Events Thunderstorm    
T = Trace of Precipitation, MM = Missing Value Source: NWS Daily Summary

Daily Weather History Graph

Daily Weather History Graph

Search for Another Location

Airport or City:

Trip Planner

Search our weather history database for the weather conditions in past years. The results will help you decide how hot, cold, wet, or windy it might be!

Date:

Astronomy

Jun. 12, 2013 Rise Set
Actual Time 5:32 AM CDT 8:36 PM CDT
Civil Twilight 4:59 AM CDT 9:09 PM CDT
Nautical Twilight 4:16 AM CDT 9:52 PM CDT
Astronomical Twilight 3:26 AM CDT 10:42 PM CDT
Moon 9:13 AM CDT (6/12) 11:11 PM CDT (6/12)
Length of Visible Light 16h 10m
Length of Day
15h 03m
Waxing Crescent, 14% of the Moon is Illuminated
Jun 12
Waxing Crescent
Jun 16
First Quarter
Jun 23
Full
Jun 29
Last Quarter
Jul 8
New

Hourly Weather History & Observations

Time (CDT) Temp. Heat Index Dew Point Humidity Pressure Visibility Wind Dir Wind Speed Gust Speed Precip Events Conditions
12:53 AM - - - N/A% 29.85 in 10.0 mi SW 3.5 mph - N/A   Clear
1:53 AM - - - N/A% 29.86 in 10.0 mi Calm Calm - N/A   Clear
2:53 AM - - - N/A% 29.85 in 10.0 mi South 3.5 mph - N/A   Clear
3:53 AM - - - N/A% 29.85 in 10.0 mi South 4.6 mph - N/A   Clear
4:53 AM - - - N/A% 29.85 in 10.0 mi South 4.6 mph - N/A   Clear
5:53 AM - - - N/A% 29.87 in 10.0 mi SSW 4.6 mph - N/A   Clear
6:53 AM - - - N/A% 29.88 in 10.0 mi Calm Calm - N/A   Clear
7:53 AM 75.9 °F - 69.1 °F 79% 29.88 in 9.0 mi Calm Calm - N/A   Clear
8:53 AM 80.1 °F 83.6 °F 71.1 °F 74% 29.87 in 9.0 mi South 8.1 mph - N/A   Clear
9:53 AM 81.0 °F 84.9 °F 71.1 °F 72% 29.79 in 10.0 mi South 13.8 mph - N/A   Clear
10:53 AM 84.9 °F 90.7 °F 72.0 °F 65% 29.80 in 10.0 mi South 9.2 mph - N/A   Clear
11:53 AM 88.0 °F 93.8 °F 71.1 °F 57% 29.75 in 10.0 mi SSW 17.3 mph 25.3 mph N/A   Clear
12:53 PM 91.0 °F 97.6 °F 71.1 °F 52% 29.72 in 10.0 mi SSW 19.6 mph 29.9 mph N/A   Clear
1:53 PM 91.9 °F 99.5 °F 72.0 °F 52% 29.73 in 6.0 mi SW 18.4 mph 26.5 mph N/A   Haze
2:53 PM 91.0 °F 98.2 °F 72.0 °F 53% 29.72 in 10.0 mi WSW 11.5 mph 21.9 mph N/A   Mostly Cloudy
3:53 PM 91.0 °F 98.2 °F 72.0 °F 53% 29.70 in 9.0 mi West 13.8 mph - N/A   Mostly Cloudy
4:53 PM 91.0 °F 99.3 °F 73.0 °F 55% 29.68 in 9.0 mi West 9.2 mph - N/A   Mostly Cloudy
5:53 PM 90.0 °F 96.4 °F 71.1 °F 54% 29.65 in 10.0 mi West 19.6 mph 27.6 mph N/A   Partly Cloudy
6:53 PM 89.1 °F 96.0 °F 72.0 °F 57% 29.66 in 8.0 mi West 10.4 mph - N/A   Clear
7:53 PM 86.0 °F 91.5 °F 71.1 °F 61% 29.64 in 8.0 mi West 11.5 mph - N/A   Clear
8:53 PM 82.9 °F 87.5 °F 71.1 °F 67% 29.64 in 10.0 mi WSW 9.2 mph - N/A   Clear
9:20 PM 82.4 °F 87.2 °F 71.6 °F 70% 29.68 in 9.0 mi WSW 12.7 mph - N/A Thunderstorm Scattered Clouds
9:40 PM 82.4 °F 86.3 °F 69.8 °F 66% 29.69 in 10.0 mi NW 17.3 mph 28.8 mph N/A   Mostly Cloudy
9:53 PM 81.0 °F 84.1 °F 69.1 °F 67% 29.68 in 10.0 mi NW 11.5 mph 20.7 mph N/A   Mostly Cloudy
10:53 PM 75.9 °F - 68.0 °F 76% 29.72 in 10.0 mi WNW 6.9 mph 18.4 mph N/A   Clear
11:53 PM 73.0 °F - 61.0 °F 66% 29.72 in 10.0 mi West 16.1 mph 25.3 mph N/A   Clear